Regional Weather Roundup
Issued by NWS Northern Indiana

Home | Current Version | Previous Version | Graphics & Text | Print | Product List | Glossary On
Versions: 1 2 3 4 5 6 7 8 9 10 11 12 13 14 15 16 17 18 19 20 21 22 23 24 25 26 27 28 29 30 31 32 33 34 35 36 37 38 39 40 41 42 43 44 45 46 47 48 49 50
802
ASUS43 KIWX 220210
RWRIWX

KIWX WEATHER ROUNDUP
NATIONAL WEATHER SERVICE NORTHERN INDIANA
900 PM EST TUE FEB 21 2017

NOTE: "FAIR" INDICATES FEW OR NO CLOUDS BELOW 12,000 FEET WITH NO
SIGNIFICANT WEATHER AND/OR OBSTRUCTIONS TO VISIBILITY.

* THESE STATIONS ARE NOT UNDER NWS QUALITY CONTROL. THEY ALSO MAY NOT
  REPORT WEATHER SUCH AS PRECIPITATION OR FOG.

INZ001>027-220300-
NORTHERN INDIANA

CITY           SKY/WX    TMP DP  RH WIND       PRES   REMARKS
GARY*          MOCLDY    52  48  87 CALM      29.91F
VALPARAISO     CLOUDY    56  52  86 S5        29.92S
MICHIGAN CITY* CLOUDY    52  52 100 CALM      29.92S FOG
LAPORTE*       PTCLDY    49  47  95 CALM      29.93S
KNOX*          PTCLDY    50  36  57 S5        29.92S
SOUTH BEND     PTCLDY    50  48  93 S5        29.93F
ELKHART*       CLEAR     52  48  87 SE3       29.92F
GOSHEN         PTCLDY    48  45  89 SE3       29.93S FOG
MONTICELLO*    MOCLDY    55  50  82 SE3       29.93S
LOGANSPORT*    CLOUDY    52  50  93 CALM      29.95R
ROCHESTER*     MOCLDY    55  50  82 S7        29.94S
WARSAW*        CLOUDY    54  48  82 CALM      29.93S
ANGOLA*        CLOUDY    46  46 100 CALM      29.93F
FORT WAYNE     CLOUDY    51  46  83 CALM      29.95S
HUNTINGTON*    MOCLDY    49  47  94 CALM      29.95S
PERU/GRISSOM   CLOUDY    52  52 100 SE3       29.93S
MARION*        MOCLDY    53  46  78 S5        29.95F

$$
INZ028>050-220300-
CENTRAL INDIANA

CITY           SKY/WX    TMP DP  RH WIND       PRES   REMARKS
LAFAYETTE      CLOUDY    53  50  89 CALM      29.93S
KOKOMO*        PTCLDY    50  48  93 S3        29.95S
MUNCIE*        CLOUDY    59  51  75 S8        29.96R
INDIANAPOLIS   CLOUDY    57  53  86 S7        29.95S

$$
MIZ043>046-050>051-056>058-064>065-071>073-077>080-220300-
SOUTHWEST LOWER MICHIGAN

CITY           SKY/WX    TMP DP  RH WIND       PRES   REMARKS
BATTLE CREEK   MOCLDY    49  49 100 CALM      29.93F FOG
BENTON HARBOR  FOG       50  48  93 CALM      29.92R VSB 1/2
COLDWATER*     PTCLDY    49  49  98 CALM      29.93F
HILLSDALE*     PTCLDY    45  45 100 CALM      29.93F FOG
HOLLAND        FOG       50  49  96 S7        29.91F VSB 1/2
GRAND RAPIDS   CLOUDY    47  45  93 S6        29.90F FOG
KALAMAZOO      MOCLDY    50  47  89 CALM      29.93F
STURGIS*       PTCLDY    51  49  95 CALM      29.92F
THREE RIVERS*  FAIR      49  49  98 S3        29.92F FOG

$$
OHZ001>008-015>018-024>025-220300-
NORTHWEST OHIO

CITY           SKY/WX    TMP DP  RH WIND       PRES   REMARKS
WAUSEON*       CLOUDY    48  48 100 CALM      29.94F
DEFIANCE       CLOUDY    48  47  96 CALM      29.94F FOG
FINDLAY        CLOUDY    57  47  69 CALM      29.94S
TOLEDO EXPRESS CLOUDY    50  50 100 CALM      29.94F
TOLEDO METCALF CLOUDY    50  49  96 S3        29.95F FOG
LIMA           CLOUDY    58  49  72 SW8       29.95R

$$
AND FOR LAKE MICHIGAN COASTAL AND OPEN LAKE BUOY OBSERVATIONS

STATION/POSITION TEMP    WIND        PRES    VSBY  WAVE
                 AIR SEA DIR/SP/G                  HT/PER
                 (F)     (DEG/KT/KT) (MB)    (MI)  (FT/S)
CALUMET HARBOR    51      CALM  /  1 1012.2F
MICHIGAN CITY     57     130/  4/  5   N/A
BURNS HARBOR      58     180/  6/  8 1013.2F

$$
&&




USA.gov is the U.S. government's official web portal to all federal, state and local government web resources and services.